Location: Unspecified
(64.9000°N, 0.0000°E)
Time: 11:31:03
(UTC+00:00)

Altair - Pass Details

Date: 22 June 2019
Orbit: 1501 x 1683 km, 47.2° (Epoch: 19 July)

Event Time Altitude Azimuth Distance (km) Brightness Sun altitude
Rises 20:32:53 0° 216° (SW) 4,740 10.0 7.0°
Reaches altitude 10° 20:36:45 10° 203° (SSW) 3,787 9.4 6.7°
Maximum altitude 20:43:39 23° 156° (SSE) 2,951 8.5 6.2°
Drops below altitude 10° 20:50:43 10° 110° (ESE) 3,894 9.1 5.7°
Sets 20:54:45 0° 97° (E) 4,905 9.7 5.4°
